CIRBE (56188 NORAD) Tracking and Keplerian Element Data

This shows tracking and keplerian element data for the satellite.

Feedback or suggestion? Click here.




ElementValue
Catalog56188
NameCIRBE
Epoch Orbit6459
Epoch Day158.26905965
Epoch Year2024
RAAN57.9077
Inclination97.3644
Eccentricity0.0005968
Argument of Perigee166.8624
Mean Anonmoly193.2785
Mean Motion15.51158774
Decay Rate0.0008228
L11 56188U 23054L 24158.26905965 .00082280 00000-0 13976-2 0 9992
L22 56188 97.3644 57.9077 0005968 166.8624 193.2785 15.51158774 64592



Live tracking and technical data element details for CIRBE (NORAD 56188). CIRBE can be tracked NOW for your location showing map with azimuth and elevation plus other details from your city location.







IsCatalogInMostPopularTable: catalog: 56188, numindb: 30
Update: records affected: 1



GetName: 56188 CIRBE

Hit Count: updated at: Thu, 23 Jan 2025 18:24:18 GMT